Weather History for Meridian, MS

Change the Weather History Date:

Wednesday, February 6, 2013

  Actual Average Record
Temperature  
Mean Temperature 60 °F 47 °F  
Max Temperature 72 °F 59 °F 78 °F (1999)
Min Temperature 47 °F 35 °F 17 °F (1988)
Degree Days  
Heating Degree Days 5 18  
Month to date heating degree days 95 113  
Since 1 July heating degree days 1528 1750  
Cooling Degree Days 0 0  
Month to date cooling degree days 0 0  
Year to date cooling degree days 16 3  
Growing Degree Days 10 (Base 50)    
Moisture  
Dew Point 49 °F    
Average Humidity 72    
Maximum Humidity 100    
Minimum Humidity 44    
Precipitation  
Precipitation 0.19 in 0.20 in 1.67 in (1958)
Month to date precipitation 0.19 1.23  
Year to date precipitation 9.95 6.36  
Sea Level Pressure  
Sea Level Pressure 30.10 in    
Wind  
Wind Speed 3 mph (NE)    
Max Wind Speed 10 mph    
Max Gust Speed 15 mph    
Visibility 4 miles    
Events Fog , Rain    
T = Trace of Precipitation, MM = Missing Value Source: NWS Daily Summary

Daily Weather History Graph

Daily Weather History Graph

Search for Another Location

Airport:

Trip Planner

Search our weather history database for the weather conditions in past years. The results will help you decide how hot, cold, wet, or windy it might be!

Date:

Astronomy

Feb. 06, 2013 Rise Set
Actual Time 6:45 AM CST 5:33 PM CST
Civil Twilight 6:19 AM CST 5:58 PM CST
Nautical Twilight 5:50 AM CST 6:27 PM CST
Astronomical Twilight 5:21 AM CST 6:56 PM CST
Moon 3:22 AM CST (2/6) 1:57 PM CST (2/6)
Length of Visible Light 11h 38m
Length of Day
10h 48m
Waning Crescent, 17% of the Moon is Illuminated
Feb 6
Waning Crescent
Feb 10
New
Feb 17
First Quarter
Feb 25
Full
Mar 4
Last Quarter

Hourly Weather History & Observations

Time (CST) Temp. Windchill Dew Point Humidity Pressure Visibility Wind Dir Wind Speed Gust Speed Precip Events Conditions
12:11 AM 48.2 °F - 48.2 °F 100% 30.06 in 2.5 mi Calm Calm - N/A   Overcast
12:30 AM 48.2 °F - 48.2 °F 100% 30.07 in 0.8 mi Calm Calm - N/A   Mist
12:43 AM 48.2 °F - 48.2 °F 100% 30.07 in 0.2 mi Calm Calm - N/A Fog Fog
12:55 AM 48.2 °F - 48.2 °F 100% 30.07 in 0.2 mi Calm Calm - N/A Fog Fog
12:58 AM 48.0 °F - 48.0 °F 100% 30.07 in 0.2 mi Calm Calm - N/A Fog Fog
1:13 AM 48.2 °F - 48.2 °F 100% 30.07 in 0.2 mi Calm Calm - N/A Fog Fog
1:26 AM 48.2 °F - 48.2 °F 100% 30.08 in 0.2 mi Calm Calm - N/A Fog Fog
1:32 AM 48.2 °F - 48.2 °F 100% 30.08 in 0.2 mi North 3.5 mph - N/A Fog Fog
1:58 AM 48.9 °F - 48.9 °F 100% 30.07 in 0.2 mi NNW 3.5 mph - N/A Fog Fog
2:58 AM 48.0 °F - 48.0 °F 100% 30.07 in 0.2 mi Calm Calm - N/A Fog Fog
3:58 AM 46.9 °F - 46.9 °F 100% 30.08 in 0.2 mi Calm Calm - N/A Fog Fog
4:29 AM 46.4 °F 45.2 °F 46.4 °F 100% 30.10 in 0.2 mi NNW 3.5 mph - N/A Fog Fog
4:58 AM 46.9 °F - 46.9 °F 100% 30.11 in 0.2 mi Calm Calm - N/A Fog Fog
5:34 AM 48.2 °F - 48.2 °F 100% 30.12 in 0.5 mi Calm Calm - N/A Fog Fog
5:51 AM 48.2 °F - 48.2 °F 100% 30.12 in 0.2 mi Calm Calm - N/A Fog Fog
5:58 AM 48.0 °F - 48.0 °F 100% 30.12 in 0.2 mi Calm Calm - N/A Fog Fog
6:18 AM 48.2 °F - 48.2 °F 100% 30.13 in 0.2 mi Calm Calm - N/A Fog Fog
6:32 AM 48.2 °F - 48.2 °F 100% 30.13 in 0.5 mi NNE 5.8 mph - N/A Fog Fog
6:41 AM 48.2 °F - 48.2 °F 100% 30.13 in 0.2 mi NE 5.8 mph - N/A Fog Fog
6:58 AM 48.0 °F - 48.0 °F 100% 30.14 in 0.2 mi NE 5.8 mph - N/A Fog Fog
7:58 AM 48.9 °F - 48.9 °F 100% 30.16 in 0.5 mi NE 3.5 mph - N/A Fog Fog
8:10 AM 48.2 °F - 48.2 °F 100% 30.16 in 0.2 mi NE 4.6 mph - N/A Fog Fog
8:23 AM 48.2 °F - 48.2 °F 100% 30.16 in 0.2 mi NNE 5.8 mph - N/A Fog Fog
8:36 AM 48.2 °F - 48.2 °F 100% 30.16 in 0.5 mi NE 5.8 mph - N/A Fog Fog
8:49 AM 50.0 °F - 50.0 °F 100% 30.16 in 2.0 mi NE 4.6 mph - N/A   Overcast
8:58 AM 50.0 °F - 50.0 °F 100% 30.16 in 0.5 mi NNE 4.6 mph - N/A Fog Fog
9:20 AM 51.8 °F - 51.8 °F 100% 30.17 in 6.0 mi NE 5.8 mph - N/A   Scattered Clouds
9:58 AM 57.9 °F - 52.0 °F 81% 30.17 in 10.0 mi North 6.9 mph - N/A   Scattered Clouds
10:03 AM 59.0 °F - 51.8 °F 77% 30.18 in 10.0 mi North 5.8 mph - N/A   Clear
10:58 AM 59.0 °F - - N/A% 30.17 in 10.0 mi ENE 4.6 mph - N/A   Clear
11:58 AM 66.2 °F - 53.6 °F 64% 30.14 in 10.0 mi ENE 10.4 mph - N/A   Clear
12:58 PM 71.6 °F - 48.2 °F 43% 30.09 in 10.0 mi NE 6.9 mph - N/A   Clear
1:58 PM 69.1 °F - 48.9 °F 49% 30.07 in 10.0 mi Calm Calm - N/A   Partly Cloudy
2:58 PM 70.0 °F - 48.0 °F 46% 30.06 in 10.0 mi SE 8.1 mph - N/A   Partly Cloudy
3:58 PM 69.1 °F - 48.0 °F 47% 30.05 in 10.0 mi ENE 5.8 mph - N/A   Clear
4:58 PM 66.9 °F - 48.9 °F 52% 30.05 in 10.0 mi Calm Calm - N/A   Clear
5:58 PM 64.9 °F - 50.0 °F 58% 30.06 in 10.0 mi East 3.5 mph - N/A   Clear
6:58 PM 63.0 °F - 48.9 °F 60% 30.06 in 10.0 mi ENE 3.5 mph - N/A   Overcast
7:58 PM 59.0 °F - 51.1 °F 75% 30.05 in 10.0 mi NNE 4.6 mph - N/A   Overcast
8:58 PM 62.1 °F - 46.9 °F 58% 30.04 in 10.0 mi NE 3.5 mph - N/A   Scattered Clouds
9:58 PM 57.0 °F - 53.1 °F 87% 30.07 in 8.0 mi South 3.5 mph - 0.00 in Rain Light Rain
10:58 PM 55.9 °F - 55.0 °F 97% 30.08 in 5.0 mi Calm Calm - 0.09 in Rain Rain
11:58 PM 55.9 °F - 55.9 °F 100% 30.05 in 5.0 mi South 3.5 mph - 0.10 in Rain Rain